Regional Weather Roundup
Issued by NWS

Home | Current Version | Previous Version | Text Only | Print | Product List | Glossary On
Versions: 1 2 3 4 5 6 7 8 9 10 11 12 13 14 15 16 17 18 19 20 21 22 23 24 25 26 27 28
000
ASUS42 KTBW 250417
RWRFL
FLORIDA REGIONAL WEATHER ROUNDUP
NATIONAL WEATHER SERVICE TAMPA BAY RUSKIN FL
1200 AM EDT MON JUL 25 2016

NOTE: "FAIR" INDICATES FEW OR NO CLOUDS BELOW 12,000 FEET WITH NO
SIGNIFICANT WEATHER AND/OR OBSTRUCTIONS TO VISIBILITY.

FLZ001>010-012>015-112-114-115-250500-
PANHANDLE FLORIDA

CITY           SKY/WX    TMP DP  RH WIND       PRES   REMARKS
PENSACOLA      PTCLDY    84  74  71 SE8       30.00R
PENSACOLA NAS  MOCLDY    86  74  67 SE8       29.99S
MILTON NAS       N/A    N/A N/A N/A MISG      30.02R
CRESTVIEW      CLEAR     75  73  93 CALM      30.03S
DUKE FIELD     FAIR      76  74  91 E3        30.01R
VALPARAISO     PTCLDY    84  73  70 SE8       30.01R
MARY ESTHER    PTCLDY    85  73  67 SE6       29.99S
TRI COUNTY     FAIR      80  75  84 CALM      30.04S
PANAMA CITY    FAIR      78  75  90 E6        30.01F
TYNDALL AFB    PTCLDY    79  74  85 E5        30.02S
APALACHICOLA   PTCLDY    84  77  79 S9        30.02S

STATION/POSITION SKY/WX   TEMP    WIND        PRES    WAVE   SWELL
                          AIR SEA DIR/SP/G            HT/PER HT/PER
                          (F)     (DEG/KT/KT) (MB)    (FT/S) (FT/S)
30.1N   87.6W              85 89  130/  8/ 10 1015.6R   2/ 4
29.2N   88.2W              85 88  160/  4/  6 1015.0R
28.8N   86.0W              83 88  190/  8/ 12 1016.6R   2/ 4   2/ 4
PANAMA CITY BEAC              88              1016.7
TOWER C                    83     190/  9/ 10 1017.5F
28.5N   84.5W              83 87  200/  8/ 10 1016.9R   2/ 5   2/ 5

$$
FLZ011-016>038-118-127-128-134-139-239-250500-
NORTH FLORIDA

CITY           SKY/WX    TMP DP  RH WIND       PRES   REMARKS
MARIANNA       CLEAR     80  77  90 CALM      30.03S
TALLAHASSEE    CLOUDY    81  76  84 CALM      30.05R
PERRY          CLOUDY    78  71  79 CALM      30.07R
LIVE OAK         N/A     75  75 100 CALM      30.09R
CROSS CITY       N/A     75  72  90 E3        30.06S
LAKE CITY      FAIR      77  72  83 CALM      30.08R
GAINESVILLE    CLEAR     77  68  73 CALM      30.08R
WILLISTON      FAIR      73  72  94 CALM      30.08S
PALATKA        MOCLDY    77  72  83 SW5       30.09R
MAYPORT NAS    CLEAR     81  71  71 S7        30.07R
JACKSONVILLE   CLEAR     78  72  81 S7        30.06S
JAX NAS        CLEAR     85  71  63 S13       30.08R
JAX CECIL      CLEAR     79  73  83 CALM      30.07S
FERNANDINA BEA FAIR      86  73  66 S7        30.06R
ST AUGUSTINE   PTCLDY    81  71  71 SW6       30.09R
PALM COAST     FAIR      77  73  85 CALM      30.08S

STATION/POSITION SKY/WX   TEMP    WIND        PRES    WAVE   SWELL
                          AIR SEA DIR/SP/G            HT/PER HT/PER
                          (F)     (DEG/KT/KT) (MB)    (FT/S) (FT/S)
SHELL POINT                85     200/  8/ 10 1016.1
KEATON BEACH               79      60/  6/  8 1017.6R
CEDAR KEY                  83     170/  6/  7 1018.1F
FERNANDINA                    90              1017.8
30.7N   81.3W                 86                N/A     3/ 8
MAYPORT                       88              1018.4
31.4N   80.9W              85 86  160/ 16/ 17 1017.6R   3/ 8   2/ 8
ST AUGUSTINE               81 86  220/  7/  9 1019.5R

$$
FLZ040-043>046-052-053-057-058-063-144-250500-
INTERIOR CENTRAL FLORIDA

CITY           SKY/WX    TMP DP  RH WIND       PRES   REMARKS
OCALA          CLEAR     75  66  73 SE3       30.08F
THE VILLAGES     N/A     75  73  94 CALM      29.99R
LEESBURG       CLEAR     75  72  90 SW5       30.09S
SANFORD        CLEAR     79  69  71 S6        30.08S
ORLANDO EXEC   CLEAR     78  71  79 S7        30.08S
ORLANDO INTL   PTCLDY    76  70  82 S5        30.08S
KISSIMMEE      CLEAR     75  72  90 W5        30.10R
WINTER HAVEN   CLEAR     76  71  85 E3        30.10R
LAKELAND       CLEAR     72  70  94 CALM      30.08S
BARTOW         FAIR      72 N/A N/A CALM      30.09S
OKEECHOBEE     PTCLDY    73  72  94 CALM      30.09S

$$
FLZ041-047-054-059-064-141-147-250500-
EAST CENTRAL FLORIDA

CITY           SKY/WX    TMP DP  RH WIND       PRES   REMARKS
DAYTONA BEACH  CLEAR     79  73  82 S3        30.08R
JFK SPACE CTR  CLEAR     79  73  80 SW3       30.07S
CAPE CANAVERAL CLEAR     81  73  78 W5        30.06S
PATRICK AFB    CLEAR     81  72  74 S3        30.07S
MELBOURNE      CLEAR     77  71  82 NW5       30.07F
VERO BEACH     CLEAR     78  72  81 CALM      30.07F
FT PIERCE      CLEAR     74  72  93 CALM      30.07F
STUART         CLEAR     81  72  74 CALM      30.09S

STATION/POSITION SKY/WX   TEMP    WIND        PRES    WAVE   SWELL
                          AIR SEA DIR/SP/G            HT/PER HT/PER
                          (F)     (DEG/KT/KT) (MB)    (FT/S) (FT/S)
28.5N   80.2W              83 85  170/  8/ 10 1018.7R
28.9N   78.5W              85 86  150/  4/  6 1018.7R
TRIDENT PIER                  88              1018.6
28.4N   80.5W                 87                N/A     2/ 9
27.5N   80.2W                 85                N/A     2/ 9

$$
FLZ050-056-061-142-242-148-248-149-249-151-251-155-255-
160-260-250500-
WEST CENTRAL FLORIDA

CITY           SKY/WX    TMP DP  RH WIND       PRES   REMARKS
CRYSTAL RIVER  FAIR      72  72 100 CALM      30.07S
INVERNESS      FAIR      72  72 100 CALM      30.08F
BROOKSVILLE    CLEAR     72  71  97 E5        30.07F
ZEPHYRHILLS    FAIR      51  51 100 E3        30.08S
CLEARWATER AIR MOCLDY    77  73  88 CALM      30.06R
ST PETE CLEARW CLEAR     77  66  68 SE5       30.06R
TAMPA INTL     PTCLDY    76  73  91 SE5       30.07S
TAMPA EXEC     CLEAR     73  72  94 CALM      30.08S
PLANT CITY     CLEAR     73  73 100 E3        30.10R
MACDILL AFB    CLEAR     77  77 100 SE7       30.06S
PETER O KNIGHT CLEAR     77  75  94 SE5       30.06S
ST PETERSBURG  CLEAR     80  75  84 S12       30.04R
SARASOTA       PTCLDY    80  73  79 SE7       30.05S
VENICE         NOT AVBL

STATION/POSITION SKY/WX   TEMP    WIND        PRES    WAVE   SWELL
                          AIR SEA DIR/SP/G            HT/PER HT/PER
                          (F)     (DEG/KT/KT) (MB)    (FT/S) (FT/S)
27.3N   84.2W                 85                N/A     2/ 5
CLEARWATER BEACH              87              1017.8
MIDDLE TAMPA BAY                              1018.1R
VENICE                     82 88  170/  8/  9 1017.7F

$$
FLZ066-069-070-075>078-162-262-165-265-250500-
SOUTHWEST FLORIDA AND KEYS

CITY           SKY/WX    TMP DP  RH WIND       PRES   REMARKS
PUNTA GORDA    CLEAR     77  76  96 S6        30.09S
FT MYERS       MOCLDY    77  73  87 SE3       30.07S
SOUTHWEST INTL PTCLDY    78  73  84 CALM      30.08S
NAPLES         CLEAR     76  74  93 E3        30.06F
MARCO ISLAND   CLEAR    N/A N/A N/A NE3       30.06F
MARATHON       CLOUDY    82  77  84 CALM      30.06S
KEY WEST NAS   CLOUDY    83  70  64 NE5       30.06R
KEY WEST INTL  MOCLDY    83  74  74 E6        30.06S

STATION/POSITION SKY/WX   TEMP    WIND        PRES    WAVE   SWELL
                          AIR SEA DIR/SP/G            HT/PER HT/PER
                          (F)     (DEG/KT/KT) (MB)    (FT/S) (FT/S)
NAPLES                        87              1018.2
26.0N   85.6W              77 86  220/  8/ 10 1017.2S   3/ 4   2/ 4
DRY TORTUGAS               83     120/  5/  6 1017.7F
SAND KEY                   82     100/  9/ 11 1018.2S
LONG KEY                   83 86  110/  6/  7 1018.5R

$$
FLZ067-068-071>074-168-172>174-250500-
SOUTHEAST FLORIDA

CITY           SKY/WX    TMP DP  RH WIND       PRES   REMARKS
W PALM BEACH   PTCLDY    80  71  74 CALM      30.08S
FT LAUDER-EXEC MOCLDY    81  73  76 CALM      30.07S
FT LAUDERDALE  MOCLDY    82  73  74 SE6       30.06F
POMPANO BEACH  PTCLDY    81  74  79 SE5       30.07F
PEMBROKE PINES PTCLDY    80  73  79 E3        30.09S
OPA LOCKA      MOCLDY    81  74  79 E5        30.08S
MIAMI          MOCLDY    80  74  81 SE3       30.08R
WEST KENDALL   CLEAR     78  75  90 CALM      30.07S
HOMESTEAD      CLEAR     79  76  91 SW1       30.07R

STATION/POSITION SKY/WX   TEMP    WIND        PRES    WAVE   SWELL
                          AIR SEA DIR/SP/G            HT/PER HT/PER
                          (F)     (DEG/KT/KT) (MB)    (FT/S) (FT/S)
PORT EVERGLADES            82     130/  3/  5 1018.4R
VIRGINIA KEY                  87              1018.5
LAKE WORTH                        180/  7/  9   N/A
FOWEY ROCKS                83 84  120/  5/  5 1018.9R
SETTLEMENT POINT           81     140/  6/  7 1019.2S

$$





USA.gov is the U.S. government's official web portal to all federal, state and local government web resources and services.